• In Hungary
  • List of Countries
  • For 7 days
  • Water Temperature
  • Satellite Maps
  • Weather Map
  • News
  • Weather Widgets
  • user-avatar
    Login

    Hourly Weather Nadsole

    Today, 16 July, Monday

    Time Temperature Precipitation Wind Pressure Humidity
    00:00 +18°C° 0.1 mm 1 mps 736 mmHg 86%
    01:00 +16°C° 0 mm 1 mps 736 mmHg 87%
    02:00 +16°C° 0.1 mm 1 mps 736 mmHg 88%
    03:00 +16°C° 0.1 mm 1 mps 736 mmHg 89%
    04:00 +15°C° 0.1 mm 1 mps 736 mmHg 90%
    05:00 +17°C° 0 mm 2 mps 736 mmHg 85%
    06:00 +18°C° 0 mm 2 mps 736 mmHg 81%
    07:00 +20°C° 0 mm 2 mps 736 mmHg 77%
    08:00 +21°C° 0.2 mm 3 mps 735 mmHg 72%
    09:00 +22°C° 0.2 mm 3 mps 735 mmHg 68%
    10:00 +25°C° 0.2 mm 4 mps 735 mmHg 64%
    11:00 +25°C° 0.4 mm 4 mps 735 mmHg 63%
    12:00 +26°C° 0.4 mm 4 mps 734 mmHg 61%
    13:00 +25°C° 0 mm 4 mps 734 mmHg 63%
    14:00 +25°C° 1 mm 4 mps 734 mmHg 66%
    15:00 +25°C° 1 mm 3 mps 734 mmHg 69%
    16:00 +24°C° 1 mm 3 mps 734 mmHg 72%
    17:00 +22°C° 0.7 mm 3 mps 733 mmHg 76%
    18:00 +21°C° 0.7 mm 2 mps 733 mmHg 80%
    19:00 +20°C° 0.7 mm 2 mps 733 mmHg 84%
    20:00 +19°C° 0.1 mm 2 mps 733 mmHg 86%
    21:00 +19°C° 0.1 mm 2 mps 733 mmHg 88%
    22:00 +19°C° 0.1 mm 1 mps 733 mmHg 89%
    23:00 +17°C° 0 mm 2 mps 733 mmHg 90%

    Tomorrow, 17 July, Tuesday

    Time Temperature Precipitation Wind Pressure Humidity
    00:00 +17°C° 0 mm 2 mps 732 mmHg 92%
    01:00 +17°C° 0 mm 2 mps 732 mmHg 93%
    02:00 +16°C° 0 mm 2 mps 732 mmHg 93%
    03:00 +16°C° 0 mm 2 mps 732 mmHg 94%
    04:00 +16°C° 0 mm 2 mps 732 mmHg 94%
    05:00 +17°C° 0.1 mm 2 mps 732 mmHg 92%
    06:00 +18°C° 0.1 mm 3 mps 732 mmHg 91%
    07:00 +19°C° 0.1 mm 3 mps 732 mmHg 89%
    08:00 +19°C° 0.5 mm 3 mps 732 mmHg 89%
    09:00 +19°C° 0.5 mm 4 mps 732 mmHg 88%
    10:00 +20°C° 0.5 mm 4 mps 732 mmHg 88%
    11:00 +20°C° 0.4 mm 4 mps 731 mmHg 88%
    12:00 +20°C° 0.4 mm 4 mps 731 mmHg 87%
    13:00 +20°C° 0.4 mm 5 mps 731 mmHg 87%
    14:00 +21°C° 0.6 mm 5 mps 731 mmHg 86%
    15:00 +21°C° 0.6 mm 5 mps 731 mmHg 84%
    16:00 +21°C° 0.6 mm 5 mps 731 mmHg 83%
    17:00 +21°C° 0.5 mm 4 mps 731 mmHg 86%
    18:00 +20°C° 0.5 mm 4 mps 731 mmHg 89%
    19:00 +19°C° 0.5 mm 4 mps 732 mmHg 92%
    20:00 +19°C° 0.3 mm 4 mps 732 mmHg 93%
    21:00 +18°C° 0.3 mm 3 mps 732 mmHg 94%
    22:00 +18°C° 0.3 mm 3 mps 732 mmHg 95%
    23:00 +18°C° 0.3 mm 3 mps 732 mmHg 95%

    Day after tomorrow, 18 July, Wednesday

    Time Temperature Precipitation Wind Pressure Humidity
    00:00 +18°C° 0.3 mm 3 mps 732 mmHg 95%
    01:00 +18°C° 0.3 mm 3 mps 732 mmHg 96%
    02:00 +18°C° 0.2 mm 3 mps 732 mmHg 96%
    03:00 +18°C° 0.2 mm 3 mps 732 mmHg 96%
    04:00 +18°C° 0.2 mm 3 mps 732 mmHg 96%
    05:00 +18°C° 0.5 mm 3 mps 732 mmHg 96%
    06:00 +18°C° 0.5 mm 4 mps 732 mmHg 95%
    07:00 +18°C° 0.5 mm 4 mps 732 mmHg 95%
    08:00 +18°C° 1.7 mm 4 mps 732 mmHg 95%
    09:00 +19°C° 1.7 mm 4 mps 733 mmHg 95%
    10:00 +19°C° 1.7 mm 4 mps 733 mmHg 95%
    11:00 +19°C° 1.3 mm 4 mps 733 mmHg 94%
    12:00 +20°C° 1.3 mm 4 mps 733 mmHg 93%
    13:00 +20°C° 1.3 mm 4 mps 733 mmHg 92%
    14:00 +20°C° 0.5 mm 4 mps 733 mmHg 91%
    15:00 +20°C° 0.5 mm 4 mps 733 mmHg 91%
    16:00 +21°C° 0.5 mm 4 mps 733 mmHg 90%
    17:00 +20°C° 0.4 mm 3 mps 733 mmHg 91%
    18:00 +20°C° 0.4 mm 3 mps 734 mmHg 92%
    19:00 +20°C° 0.4 mm 3 mps 734 mmHg 93%
    20:00 +20°C° 0.5 mm 3 mps 734 mmHg 94%
    21:00 +20°C° 0.5 mm 3 mps 734 mmHg 94%
    22:00 +19°C° 0.5 mm 3 mps 734 mmHg 95%
    23:00 +19°C° 0.4 mm 3 mps 734 mmHg 95%

    19 July, Thursday

    Time Temperature Precipitation Wind Pressure Humidity
    00:00 +19°C° 0.4 mm 3 mps 734 mmHg 95%
    01:00 +19°C° 0.4 mm 3 mps 734 mmHg 95%
    02:00 +18°C° 0.2 mm 3 mps 734 mmHg 95%
    03:00 +18°C° 0.2 mm 3 mps 734 mmHg 96%
    04:00 +18°C° 0.2 mm 3 mps 734 mmHg 96%
    05:00 +18°C° 0.4 mm 3 mps 735 mmHg 96%
    06:00 +18°C° 0.4 mm 3 mps 735 mmHg 96%
    07:00 +18°C° 0.4 mm 3 mps 735 mmHg 96%
    08:00 +18°C° 0.9 mm 3 mps 735 mmHg 96%
    09:00 +18°C° 0.9 mm 3 mps 735 mmHg 95%
    10:00 +18°C° 0.9 mm 3 mps 736 mmHg 95%
    11:00 +18°C° 0.9 mm 3 mps 736 mmHg 95%
    12:00 +19°C° 0.9 mm 3 mps 736 mmHg 94%
    13:00 +19°C° 0.9 mm 3 mps 736 mmHg 94%
    14:00 +19°C° 0.5 mm 3 mps 736 mmHg 94%
    15:00 +19°C° 0.5 mm 2 mps 736 mmHg 94%
    16:00 +19°C° 0.5 mm 2 mps 736 mmHg 93%
    17:00 +19°C° 0.1 mm 2 mps 736 mmHg 94%
    18:00 +19°C° 0.1 mm 2 mps 736 mmHg 94%
    19:00 +20°C° 0.1 mm 1 mps 736 mmHg 94%
    20:00 +19°C° 0.1 mm 2 mps 736 mmHg 94%
    21:00 +18°C° 0.1 mm 2 mps 736 mmHg 95%
    22:00 +18°C° 0.1 mm 2 mps 736 mmHg 96%
    23:00 +18°C° 0.1 mm 2 mps 736 mmHg 96%

    20 July, Friday

    Time Temperature Precipitation Wind Pressure Humidity
    00:00 +18°C° 0.1 mm 2 mps 736 mmHg 97%
    01:00 +18°C° 0.1 mm 2 mps 736 mmHg 97%
    02:00 +18°C° 0.1 mm 2 mps 736 mmHg 97%
    03:00 +18°C° 0.1 mm 2 mps 736 mmHg 97%
    04:00 +18°C° 0.1 mm 2 mps 736 mmHg 97%
    05:00 +18°C° 0.2 mm 2 mps 736 mmHg 97%
    06:00 +18°C° 0.2 mm 2 mps 736 mmHg 96%
    07:00 +19°C° 0.2 mm 2 mps 736 mmHg 96%
    08:00 +19°C° 0.3 mm 2 mps 736 mmHg 94%
    09:00 +20°C° 0.3 mm 2 mps 736 mmHg 91%
    10:00 +20°C° 0.3 mm 2 mps 737 mmHg 89%
    11:00 +21°C° 0.1 mm 2 mps 736 mmHg 84%
    12:00 +23°C° 0.1 mm 2 mps 736 mmHg 80%
    13:00 +24°C° 0.1 mm 2 mps 736 mmHg 75%
    14:00 +24°C° 0 mm 2 mps 736 mmHg 70%
    15:00 +25°C° 0 mm 3 mps 736 mmHg 66%
    16:00 +26°C° 0 mm 3 mps 736 mmHg 61%
    17:00 +25°C° 0 mm 2 mps 736 mmHg 66%
    18:00 +24°C° 0 mm 2 mps 735 mmHg 71%
    19:00 +22°C° 0 mm 1 mps 735 mmHg 76%
    20:00 +21°C° 0 mm 1 mps 735 mmHg 79%
    21:00 +20°C° 0 mm 1 mps 736 mmHg 82%
    22:00 +17°C° 0 mm 0 mps 736 mmHg 85%
    23:00 +16°C° 0 mm 0 mps 736 mmHg 86%

    21 July, Saturday

    Time Temperature Precipitation Wind Pressure Humidity
    00:00 +16°C° 0 mm 0 mps 735 mmHg 87%
    01:00 +16°C° 0 mm 1 mps 735 mmHg 87%
    02:00 +16°C° 0 mm 1 mps 735 mmHg 88%
    03:00 +15°C° 0 mm 0 mps 735 mmHg 89%
    04:00 +15°C° 0 mm 0 mps 735 mmHg 89%
    05:00 +16°C° 0 mm 0 mps 735 mmHg 85%
    06:00 +18°C° 0 mm 0 mps 735 mmHg 80%
    07:00 +20°C° 0 mm 0 mps 735 mmHg 75%
    08:00 +21°C° 0 mm 0 mps 735 mmHg 69%
    09:00 +25°C° 0 mm 1 mps 735 mmHg 62%
    10:00 +26°C° 0 mm 1 mps 735 mmHg 55%
    11:00 +27°C° 0.1 mm 1 mps 735 mmHg 55%
    12:00 +27°C° 0.1 mm 1 mps 734 mmHg 54%
    13:00 +27°C° 0.1 mm 1 mps 734 mmHg 54%
    14:00 +27°C° 0.6 mm 1 mps 734 mmHg 57%
    15:00 +26°C° 0.6 mm 1 mps 734 mmHg 60%
    16:00 +26°C° 0.6 mm 1 mps 733 mmHg 64%
    17:00 +25°C° 0.3 mm 1 mps 733 mmHg 68%
    18:00 +23°C° 0.3 mm 1 mps 733 mmHg 73%
    19:00 +22°C° 0.3 mm 1 mps 733 mmHg 78%
    20:00 +21°C° 0.2 mm 1 mps 732 mmHg 80%
    21:00 +21°C° 0.2 mm 1 mps 732 mmHg 83%
    22:00 +20°C° 0.2 mm 1 mps 732 mmHg 85%
    23:00 +20°C° 0.3 mm 1 mps 732 mmHg 86%
    Show more